This demonstration page uses our WeatherBlox Daily Observations layout. Learn more.

Left ArrowRight Arrow

39.92423, -83.80882

Hourly Observations for July 11, 2019

Temp ( °F °C ) Dew Point ( °F °C ) Humidity (%) Winds ( mph kmh ) Pressure ( in mb ) Visibility ( mi km ) Precip ( " mm )
12:56 am 00:56 Clear 75 23.9 68 20 79 79 N N/A 29.91 1013 10 16.0934 N/A
1:56 am 01:56 Clear 72 22.2 68 20 87 87 SSE 8 13 29.87 1012 10 16.0934 N/A
2:56 am 02:56 Clear 72 22.2 68 20 87 87 S 3 6 29.87 1012 10 16.0934 N/A
3:56 am 03:56 Clear 72 22.2 68 20 87 87 SW 5 7 29.88 1012 10 16.0934 N/A
4:56 am 04:56 Clear 72 22.2 69 20.6 91 91 W 5 7 29.88 1012 10 16.0934 N/A
5:56 am 05:56 Clear 72 22.2 69 20.6 91 91 S 5 7 29.87 1012 10 16.0934 N/A
6:56 am 06:56 Mostly Sunny 72 22.2 70 21.1 94 94 N N/A 29.88 1012 10 16.0934 N/A
7:56 am 07:56 Sunny 72 22.2 71 21.7 97 97 SW 3 6 29.89 1012 10 16.0934 N/A
8:56 am 08:56 Sunny 78 25.6 71 21.7 79 79 WNW 7 11 29.88 1012 10 16.0934 N/A
9:56 am 09:56 Sunny 80 26.7 71 21.7 74 74 NW 7 11 29.88 1012 10 16.0934 N/A
10:56 am 10:56 Sunny 81 27.2 72 22.2 74 74 WSW 5 7 29.88 1012 10 16.0934 N/A
11:56 am 11:56 Sunny 83 28.3 72 22.2 70 70 SW 7 11 29.86 1011 10 16.0934 N/A
12:56 pm 12:56 Mostly Sunny 85 29.4 72 22.2 65 65 W 5 7 29.86 1011 10 16.0934 N/A
1:56 pm 13:56 Cloudy 86 30 73 22.8 65 65 W 10 17 29.85 1011 10 16.0934 N/A
2:56 pm 14:56 Partly Cloudy 88 31.1 73 22.8 61 61 WNW 12 19 29.83 1010 10 16.0934 N/A
3:56 pm 15:56 Partly Cloudy 88 31.1 70 21.1 55 55 WNW 15 24 29.81 1010 10 16.0934 N/A
4:56 pm 16:56 Mostly Cloudy 86 30 68 20 55 55 NW 16 26 29.81 1009 10 16.0934 N/A
5:56 pm 17:56 Partly Cloudy 86 30 67 19.4 53 53 WNW 12 19 29.8 1009 10 16.0934 N/A
6:56 pm 18:56 Mostly Sunny 85 29.4 64 17.8 50 50 NW 14 22 29.82 1010 10 16.0934 N/A
7:56 pm 19:56 Mostly Cloudy 82 27.8 66 18.9 58 58 NNW 10 17 29.85 1011 10 16.0934 N/A
8:56 pm 20:56 Partly Cloudy 79 26.1 66 18.9 65 65 WNW 7 11 29.86 1011 10 16.0934 N/A
9:56 pm 21:56 Mostly Cloudy 78 25.6 66 18.9 67 67 NW 8 13 29.86 1011 10 16.0934 N/A
10:56 pm 22:56 Clear 75 23.9 66 18.9 74 74 NW 6 9 29.87 1012 10 16.0934 N/A
11:56 pm 23:56 Clear 74 23.3 66 18.9 76 76 WNW 5 7 29.87 1011 10 16.0934 N/A

Powered by AerisWeather